sat.trackr.live / text

‹ back to catalog

EUTELSAT HOTBIRD 13G

NORAD 54225 · 2022-146A

PAYLOAD ACTIVE UNKNOWN

§ Identity

Operator
Country
EUTE
Launch date
2022-11-03
Launch site
AFETR
Launch vehicle
Mass (kg)
RCS (m²)

Purposes: comms

External: N2YO · Heavens-Above · Gunter

§ Orbital elements

Epoch: 2026-05-24T19:14:22.018272Z

Period
1,436.09 min
Inclination
0.0407°
Eccentricity
0.0001975
Mean motion
1.00272308 rev/d
Perigee alt
35,778.1 km
Apogee alt
35,794.8 km
Semi-major
42,164.6 km
B*
0.0000e+0
RAAN
234.4848°
Arg perigee
307.8333°
Mean anomaly
1.6674°
Rev number
723

§ Raw data

EUTELSAT HOTBIRD 13G1 54225U 22146A   26144.80164373  .00000084  00000+0  00000+0 0  99922 54225   0.0407 234.4848 0001975 307.8333   1.6674  1.00272308  7232

JSON: /api/v1/satellites/54225 · /tle

For live sub-satellite position, see the globe view (requires WebGL).

§ Visibility from observer

Set your observer location to see the next 7 days of passes ≥ 10°. The values pass through the URL so the page stays shareable.

No JS? Fill the form by hand. The geolocation button needs JavaScript.